Overview Statistics Trail Chart Weather Telemetry Raw packets
 

This is the latest recevied weather packets stored in our database for station/object VE3EP-1. If no packets are shown the sender has not sent any weather packets the latest 10 day(s).

<< 19 20 21 22 23 24 25 >>
Time Temp. Humidity Pressure Rain* Wind** Luminosity Snow
1788141247 20° C 90% 1022 hPa 0 mm - - -
1788139447 20° C 91% 1022.1 hPa 0 mm - - -
1788138247 20° C 93% 1021.7 hPa 0 mm - - -
1788137647 20° C 93% 1021.8 hPa 0 mm - - -
1788137047 20° C 92% 1021.6 hPa 0 mm - - -
1788136447 20° C 92% 1021.3 hPa 0 mm - - -
1788135848 20° C 92% 1021.4 hPa 0 mm - - -
1788135247 20° C 92% 1021.3 hPa 0 mm - - -
1788134647 20° C 91% 1021.1 hPa 0 mm - - -
1788134047 20° C 91% 1021.1 hPa 0 mm - - -
1788133447 20° C 90% 1021.1 hPa 0 mm - - -
1788132848 20° C 90% 1020.9 hPa 0 mm - - -
1788132257 20° C 89% 1021 hPa 0 mm - - -
1788131647 20° C 88% 1021 hPa 0 mm - - -
1788131048 20.56° C 88% 1021 hPa 0 mm - - -
1788129847 21.11° C 85% 1021.2 hPa 0 mm - - -
1788129247 21.11° C 86% 1021 hPa 0 mm - - -
1788128648 21.11° C 84% 1021.1 hPa 0 mm - - -
1788128047 21.11° C 84% 1021.1 hPa 0 mm - - -
1788127447 21.11° C 83% 1020.8 hPa 0 mm - - -
1788126847 21.11° C 82% 1021 hPa 0 mm - - -
1788126248 21.11° C 82% 1021 hPa 0 mm - - -
1788125646 21.11° C 83% 1020.8 hPa 0 mm - - -
1788125046 21.67° C 81% 1020.9 hPa 0.25 mm - - -
1788124447 21.67° C 81% 1020.7 hPa 0.25 mm - - -

* Rain latest hour (hover to see other rain measurements)
** Current wind speed in m/s (hover to see current wind gust speed)